Location: Roland
(31.1349°N, 85.4372°W)
Time: 02:09:09
(UTC+00:00)

Vanguard 2 Rocket - All Passes

Search period start: 21 April 2021 00:00
Search period end: 01 May 2021 00:00
Orbit: 553 x 3326 km, 32.9° (Epoch: 20 April)

Date Brightness Start Highest point End Pass type
(mag) Time Alt. Az. Time Alt. Az. Time Alt. Az.
21 Apr - 01:35:04 10° WNW 01:50:28 42° SW 02:00:06 10° SSE visible
21 Apr - 15:27:13 10° S 15:38:06 30° SE 15:52:56 10° E daylight
21 Apr - 17:38:01 10° SW 17:53:40 68° SSE 18:13:55 10° ENE daylight
21 Apr - 19:53:25 10° W 20:12:43 87° N 20:31:57 10° E daylight
21 Apr - 22:11:47 10° W 22:32:37 90° NNE 22:48:05 10° ESE daylight
22 Apr - 00:31:38 10° WNW 00:49:52 57° SW 01:01:22 10° SE visible
22 Apr - 02:54:59 10° W 03:03:11 17° SW 03:09:26 10° SSW visible
22 Apr - 14:30:17 10° SSE 14:37:52 18° SE 14:47:31 10° E daylight
22 Apr - 16:38:22 10° SW 16:51:58 55° SE 17:11:11 10° ENE daylight
22 Apr - 18:52:11 10° WSW 19:09:50 88° SSE 19:30:10 10° E daylight
22 Apr - 21:09:25 10° W 21:29:54 86° N 21:47:23 10° E daylight
22 Apr - 23:28:33 10° WNW 23:48:33 71° SSW 00:02:00 10° SE daylight
23 Apr - 01:49:51 10° W 02:03:22 30° SW 02:12:35 10° S visible
23 Apr - 15:39:26 10° SSW 15:50:56 41° SE 16:07:51 10° ENE daylight
23 Apr - 17:51:37 10° WSW 18:07:17 80° SSE 18:27:57 10° ENE daylight
23 Apr - 20:07:33 10° W 20:26:54 85° N 20:46:06 10° E daylight
23 Apr - 22:25:51 10° WNW 22:46:33 82° SSW 23:02:01 10° ESE daylight
24 Apr - 00:45:54 10° WNW 01:03:00 44° SW 01:14:23 10° SSE visible
24 Apr - 14:41:23 10° S 14:50:35 28° SE 15:03:45 10° E daylight
24 Apr - 16:51:39 10° SW 17:05:18 68° SSE 17:25:17 10° ENE daylight
24 Apr - 19:06:13 10° W 19:23:54 86° N 19:44:17 10° E daylight
24 Apr - 21:23:33 10° W 21:44:00 90° SSW 22:01:27 10° ESE daylight
24 Apr - 23:42:37 10° WNW 00:01:58 58° SW 00:15:22 10° SE daylight
25 Apr - 02:05:41 10° W 02:16:06 20° SW 02:24:02 10° S visible
25 Apr - 13:44:54 10° SSE 13:50:45 16° SE 13:58:07 10° E daylight
25 Apr - 15:52:20 10° SW 16:04:00 54° SE 16:22:11 10° ENE daylight
25 Apr - 18:05:29 10° WSW 18:21:11 89° SSE 18:41:59 10° E daylight
25 Apr - 20:21:43 10° W 20:41:05 86° N 21:00:15 10° E daylight
25 Apr - 22:39:51 10° WNW 23:00:14 71° SSW 23:15:42 10° SE daylight
26 Apr - 01:00:39 10° W 01:15:54 32° SW 01:26:47 10° SSE visible
26 Apr - 14:53:40 10° SSW 15:03:25 39° SE 15:18:41 10° ENE daylight
26 Apr - 17:05:19 10° WSW 17:18:57 80° SSE 17:39:17 10° ENE daylight
26 Apr - 19:20:22 10° W 19:38:04 84° N 19:58:27 10° E daylight
26 Apr - 21:37:36 10° WNW 21:57:55 81° SSW 22:15:20 10° ESE daylight
26 Apr - 23:56:53 10° WNW 00:15:06 45° SW 00:28:18 10° SSE daylight
27 Apr - 02:24:54 10° WSW 02:28:49 11° SW 02:32:22 10° SW visible
27 Apr - 13:55:53 10° S 14:03:28 25° SE 14:14:33 10° E daylight
27 Apr - 16:05:41 10° SW 16:17:23 68° SSE 16:36:17 10° ENE daylight
27 Apr - 18:19:33 10° W 18:35:16 86° N 18:56:06 10° E daylight
27 Apr - 20:35:49 10° W 20:55:10 89° SSW 21:14:18 10° ESE daylight
27 Apr - 22:53:57 10° WNW 23:13:39 58° SSW 23:29:00 10° SE daylight
28 Apr - 01:16:25 10° W 01:28:38 22° SW 01:38:13 10° S visible
28 Apr - 13:00:04 10° SSE 13:03:59 13° SE 13:08:42 10° ESE daylight
28 Apr - 15:06:38 10° SW 15:16:32 53° SE 15:33:01 10° ENE daylight
28 Apr - 17:19:14 10° WSW 17:32:52 89° SSE 17:53:20 10° E daylight
28 Apr - 19:34:32 10° W 19:52:15 86° N 20:12:36 10° E daylight
28 Apr - 21:51:38 10° WNW 22:11:36 70° SSW 22:28:56 10° SE daylight
29 Apr - 00:11:39 10° W 00:28:01 33° SW 00:40:36 10° SSE daylight
29 Apr - 14:08:12 10° SSW 14:16:22 37° SE 14:29:32 10° ENE daylight
29 Apr - 16:19:24 10° WSW 16:31:04 80° SSE 16:50:18 10° ENE daylight
29 Apr - 18:33:41 10° W 18:49:26 84° N 19:10:17 10° E daylight
29 Apr - 20:49:53 10° WNW 21:09:05 81° SSW 21:28:09 10° ESE daylight
29 Apr - 23:08:14 10° WNW 23:26:48 46° SW 23:41:48 10° SSE daylight
30 Apr - 01:34:50 10° WSW 01:41:24 13° SW 01:47:14 10° SSW visible
30 Apr - 13:10:40 10° S 13:16:46 22° SE 13:25:33 10° E daylight
30 Apr - 15:20:04 10° SW 15:29:58 67° SSE 15:47:07 10° ENE daylight
30 Apr - 17:33:18 10° W 17:46:58 85° N 18:07:28 10° E daylight
30 Apr - 19:48:38 10° W 20:06:20 88° SSW 20:26:38 10° ESE daylight
30 Apr - 22:05:44 10° WNW 22:25:01 58° SSW 22:42:08 10° SE daylight
